Flag for Central African Republic Weather past 2 weeks in Bimbo, Central African Republic

Now
63 °F

Clear.


Feels Like: 63 °F
Forecast: 61 / 89 °F
Wind: 1 mph from Northwest

Location: Bangui Airport

Current Time: Dec 25, 2014 at 3:23:37 AM

Latest Report: Dec 25, 2014 at 2:00 AM


Visibility: 10 mi

Pressure: 29.92 "Hg

Humidity: 94%

Dew point: 61 °F

Location of BimboLocation

Historic Weather in Bimbo — Graph

°F

Bimbo temperature yesterday

Maximum temperature yesterday: 91 °F (at 2:00 PM)
Minimum temperature yesterday: 61 °F (at 6:00 AM)
Average temperature yesterday: 74 °F

Past Weeks' High & Low Weather Summary

 TemperatureHumidityPressure
High91 °F (Dec 10, 2:00 PM)100% (Dec 10, 2:00 AM)29.98 "Hg (Dec 10, 2:00 AM)
Low61 °F (Dec 24, 6:00 AM)26% (Dec 24, 2:00 PM)29.74 "Hg (Dec 10, 3:00 PM)
Average77 °F78%29.87 "Hg
* Reported Dec 10 2:00 AM — Dec 25 2:00 AM, Bimbo, Weather by CustomWeather, © 2014

Note: Actual official high and low records may vary slightly from our data, if they occured in-between our weather recording intervals... More about our weather records

Advertising

Bimbo weather history for previous 24 hours

 ConditionsComfort  
Time TempWeatherWind HumidityBarometerVisibility
2:00 AM
Dec 25
63 °FClear.1 mph94%29.92 "Hg10 mi
1:00 AM64 °FClear.No wind94%29.92 "Hg4 mi
12:00 AM66 °FClear.3 mph88%29.92 "Hg4 mi
11:00 PM
Dec 24
66 °FClear.1 mph94%29.95 "Hg4 mi
10:00 PM68 °FClear.No wind88%29.92 "Hg4 mi
9:00 PM70 °FClear.No wind83%29.92 "Hg4 mi
8:00 PM72 °FClear.No wind83%29.89 "Hg4 mi
6:00 PM77 °FClear.2 mph61%29.86 "Hg2 mi
5:00 PM84 °FClear.No wind45%29.83 "Hg4 mi
4:00 PM88 °FSunny.5 mph31%29.83 "Hg10 mi
3:00 PM90 °FPassing clouds.7 mph26%29.83 "HgN/A
2:00 PM91 °FPassing clouds.7 mph26%29.86 "HgN/A
1:00 PM88 °FSunny.7 mph33%29.86 "Hg10 mi
12:00 PM86 °FPassing clouds.6 mph38%29.89 "HgN/A
11:00 AM82 °FPassing clouds.7 mph42%29.95 "HgN/A
9:00 AM73 °FClear.5 mph65%29.98 "Hg4 mi
8:00 AM68 °FClear.3 mph78%29.98 "Hg4 mi
7:00 AM63 °FFog.No wind100%29.95 "Hg2 mi
6:00 AM61 °FClear.2 mph100%29.95 "Hg4 mi
5:00 AM63 °FClear.2 mph94%29.92 "Hg10 mi
4:00 AM64 °FClear.2 mph94%29.92 "Hg10 mi
3:00 AM64 °FClear.5 mph94%29.92 "Hg10 mi
Weather by CustomWeather, © 2014

See weather overviewHow to use our weather pages